Year,Month,Day,Hour,Minute,Value (Times are PST for temperature in C)
2018,07,03,00,00,12.00
2018,07,03,00,01,12.00
2018,07,03,00,02,12.00
2018,07,03,00,03,11.90
2018,07,03,00,04,11.90
2018,07,03,00,05,11.90
2018,07,03,00,06,11.90
2018,07,03,00,07,11.90
2018,07,03,00,08,11.90
2018,07,03,00,09,11.80
2018,07,03,00,10,11.80
2018,07,03,00,11,11.80
2018,07,03,00,12,11.80
2018,07,03,00,13,11.80
2018,07,03,00,14,11.80
2018,07,03,00,15,11.70
2018,07,03,00,16,11.70
2018,07,03,00,17,11.70
2018,07,03,00,18,11.70
2018,07,03,00,19,11.60
2018,07,03,00,20,11.60
2018,07,03,00,21,11.60
2018,07,03,00,22,11.60
2018,07,03,00,23,11.50
2018,07,03,00,24,11.50
2018,07,03,00,25,11.50
2018,07,03,00,26,11.50
2018,07,03,00,27,11.40
2018,07,03,00,28,11.40
2018,07,03,00,29,11.40
2018,07,03,00,30,11.40
2018,07,03,00,31,11.40
2018,07,03,00,32,11.40
2018,07,03,00,33,11.30
2018,07,03,00,34,11.30
2018,07,03,00,35,11.30
2018,07,03,00,36,11.30
2018,07,03,00,37,11.30
2018,07,03,00,38,11.20
2018,07,03,00,39,11.20
2018,07,03,00,40,11.20
2018,07,03,00,41,11.20
2018,07,03,00,42,11.20
2018,07,03,00,43,11.20
2018,07,03,00,44,11.20
2018,07,03,00,45,11.10
2018,07,03,00,46,11.10
2018,07,03,00,47,11.10
2018,07,03,00,48,11.10
2018,07,03,00,49,11.10
2018,07,03,00,50,11.10
2018,07,03,00,51,11.00
2018,07,03,00,52,11.00
2018,07,03,00,53,11.00
2018,07,03,00,54,11.00
2018,07,03,00,55,10.90
2018,07,03,00,56,10.90
2018,07,03,00,57,10.90
2018,07,03,00,58,10.90
2018,07,03,00,59,10.90
2018,07,03,01,00,10.90
2018,07,03,01,01,10.80
2018,07,03,01,02,10.80
2018,07,03,01,03,10.80
2018,07,03,01,04,10.80
2018,07,03,01,05,10.80
2018,07,03,01,06,10.80
2018,07,03,01,07,10.80
2018,07,03,01,08,10.80
2018,07,03,01,09,10.70
2018,07,03,01,10,10.70
2018,07,03,01,11,10.70
2018,07,03,01,12,10.70
2018,07,03,01,13,10.70
2018,07,03,01,14,10.70
2018,07,03,01,15,10.70
2018,07,03,01,16,10.70
2018,07,03,01,17,10.70
2018,07,03,01,18,10.60
2018,07,03,01,19,10.60
2018,07,03,01,20,10.60
2018,07,03,01,21,10.60
2018,07,03,01,22,10.60
2018,07,03,01,23,10.50
2018,07,03,01,24,10.50
2018,07,03,01,25,10.50
2018,07,03,01,26,10.50
2018,07,03,01,27,10.50
2018,07,03,01,28,10.50
2018,07,03,01,29,10.50
2018,07,03,01,30,10.50
2018,07,03,01,31,10.50
2018,07,03,01,32,10.50
2018,07,03,01,33,10.50
2018,07,03,01,34,10.50
2018,07,03,01,35,10.50
2018,07,03,01,36,10.50
2018,07,03,01,37,10.50
2018,07,03,01,38,10.40
2018,07,03,01,39,10.40
2018,07,03,01,40,10.40
2018,07,03,01,41,10.40
2018,07,03,01,42,10.40
2018,07,03,01,43,10.40
2018,07,03,01,44,10.40
2018,07,03,01,45,10.40
2018,07,03,01,46,10.40
2018,07,03,01,47,10.40
2018,07,03,01,48,10.40
2018,07,03,01,49,10.40
2018,07,03,01,50,10.40
2018,07,03,01,51,10.40
2018,07,03,01,52,10.40
2018,07,03,01,53,10.40
2018,07,03,01,54,10.40
2018,07,03,01,55,10.40
2018,07,03,01,56,10.40
2018,07,03,01,57,10.40
2018,07,03,01,58,10.40
2018,07,03,01,59,10.40
2018,07,03,02,00,10.40
2018,07,03,02,01,10.40
2018,07,03,02,02,10.40
2018,07,03,02,03,10.40
2018,07,03,02,04,10.30
2018,07,03,02,05,10.30
2018,07,03,02,06,10.30
2018,07,03,02,07,10.30
2018,07,03,02,08,10.30
2018,07,03,02,09,10.30
2018,07,03,02,10,10.30
2018,07,03,02,11,10.30
2018,07,03,02,12,10.30
2018,07,03,02,13,10.30
2018,07,03,02,14,10.30
2018,07,03,02,15,10.30
2018,07,03,02,16,10.30
2018,07,03,02,17,10.30
2018,07,03,02,18,10.30
2018,07,03,02,19,10.30
2018,07,03,02,20,10.30
2018,07,03,02,21,10.30
2018,07,03,02,22,10.30
2018,07,03,02,23,10.30
2018,07,03,02,24,10.30
2018,07,03,02,25,10.30
2018,07,03,02,26,10.30
2018,07,03,02,27,10.30
2018,07,03,02,28,10.30
2018,07,03,02,29,10.30
2018,07,03,02,30,10.30
2018,07,03,02,31,10.30
2018,07,03,02,32,10.30
2018,07,03,02,33,10.30
2018,07,03,02,34,10.30
2018,07,03,02,35,10.30
2018,07,03,02,36,10.30
2018,07,03,02,37,10.30
2018,07,03,02,38,10.30
2018,07,03,02,39,10.30
2018,07,03,02,40,10.30
2018,07,03,02,41,10.30
2018,07,03,02,42,10.30
2018,07,03,02,43,10.40
2018,07,03,02,44,10.40
2018,07,03,02,45,10.40
2018,07,03,02,46,10.40
2018,07,03,02,47,10.40
2018,07,03,02,48,10.50
2018,07,03,02,49,10.50
2018,07,03,02,50,10.50
2018,07,03,02,51,10.50
2018,07,03,02,52,10.50
2018,07,03,02,53,10.50
2018,07,03,02,54,10.50
2018,07,03,02,55,10.50
2018,07,03,02,56,10.60
2018,07,03,02,57,10.60
2018,07,03,02,58,10.70
2018,07,03,02,59,10.70
2018,07,03,03,00,10.70
2018,07,03,03,01,10.80
2018,07,03,03,02,10.90
2018,07,03,03,03,11.00
2018,07,03,03,04,11.10
2018,07,03,03,05,11.10
2018,07,03,03,06,11.20
2018,07,03,03,07,11.20
2018,07,03,03,08,11.20
2018,07,03,03,09,11.30
2018,07,03,03,10,11.30
2018,07,03,03,11,11.30
2018,07,03,03,12,11.30
2018,07,03,03,13,11.40
2018,07,03,03,14,11.40
2018,07,03,03,15,11.40
2018,07,03,03,16,11.40
2018,07,03,03,17,11.40
2018,07,03,03,18,11.40
2018,07,03,03,19,11.40
2018,07,03,03,20,11.40
2018,07,03,03,21,11.40
2018,07,03,03,22,11.40
2018,07,03,03,23,11.40
2018,07,03,03,24,11.40
2018,07,03,03,25,11.40
2018,07,03,03,26,11.40
2018,07,03,03,27,11.40
2018,07,03,03,28,11.40
2018,07,03,03,29,11.50
2018,07,03,03,30,11.60
2018,07,03,03,31,11.70
2018,07,03,03,32,11.80
2018,07,03,03,33,11.90
2018,07,03,03,34,11.90
2018,07,03,03,35,11.90
2018,07,03,03,36,11.90
2018,07,03,03,37,11.90
2018,07,03,03,38,11.90
2018,07,03,03,39,12.00
2018,07,03,03,40,12.00
2018,07,03,03,41,12.00
2018,07,03,03,42,12.00
2018,07,03,03,43,12.00
2018,07,03,03,44,12.10
2018,07,03,03,45,12.10
2018,07,03,03,46,12.10
2018,07,03,03,47,12.10
2018,07,03,03,48,12.10
2018,07,03,03,49,12.20
2018,07,03,03,50,12.20
2018,07,03,03,51,12.20
2018,07,03,03,52,12.20
2018,07,03,03,53,12.20
2018,07,03,03,54,12.20
2018,07,03,03,55,12.10
2018,07,03,03,56,12.10
2018,07,03,03,57,12.10
2018,07,03,03,58,12.10
2018,07,03,03,59,12.10
2018,07,03,04,00,12.10
2018,07,03,04,01,12.10
2018,07,03,04,02,12.10
2018,07,03,04,03,12.00
2018,07,03,04,04,12.00
2018,07,03,04,05,12.00
2018,07,03,04,06,12.00
2018,07,03,04,07,11.90
2018,07,03,04,08,11.90
2018,07,03,04,09,11.90
2018,07,03,04,10,11.90
2018,07,03,04,11,11.90
2018,07,03,04,12,12.00
2018,07,03,04,13,12.00
2018,07,03,04,14,12.00
2018,07,03,04,15,12.10
2018,07,03,04,16,12.10
2018,07,03,04,17,12.10
2018,07,03,04,18,12.20
2018,07,03,04,19,12.20
2018,07,03,04,20,12.30
2018,07,03,04,21,12.30
2018,07,03,04,22,12.30
2018,07,03,04,23,12.30
2018,07,03,04,24,12.30
2018,07,03,04,25,12.30
2018,07,03,04,26,12.30
2018,07,03,04,27,12.30
2018,07,03,04,28,12.30
2018,07,03,04,29,12.40
2018,07,03,04,30,12.50
2018,07,03,04,31,12.50
2018,07,03,04,32,12.60
2018,07,03,04,33,12.60
2018,07,03,04,34,12.70
2018,07,03,04,35,12.70
2018,07,03,04,36,12.70
2018,07,03,04,37,12.70
2018,07,03,04,38,12.70
2018,07,03,04,39,12.70
2018,07,03,04,40,12.70
2018,07,03,04,41,12.70
2018,07,03,04,42,12.70
2018,07,03,04,43,12.80
2018,07,03,04,44,12.80
2018,07,03,04,45,12.80
2018,07,03,04,46,12.80
2018,07,03,04,47,12.80
2018,07,03,04,48,12.70
2018,07,03,04,49,12.70
2018,07,03,04,50,12.70
2018,07,03,04,51,12.70
2018,07,03,04,52,12.60
2018,07,03,04,53,12.60
2018,07,03,04,54,12.70
2018,07,03,04,55,12.70
2018,07,03,04,56,12.70
2018,07,03,04,57,12.80
2018,07,03,04,58,12.80
2018,07,03,04,59,12.80
2018,07,03,05,00,12.80
2018,07,03,05,01,12.80
2018,07,03,05,02,12.80
2018,07,03,05,03,12.80
2018,07,03,05,04,12.80
2018,07,03,05,05,12.80
2018,07,03,05,06,12.80
2018,07,03,05,07,12.80
2018,07,03,05,08,12.80
2018,07,03,05,09,12.90
2018,07,03,05,10,13.00
2018,07,03,05,11,13.10
2018,07,03,05,12,13.10
2018,07,03,05,13,13.10
2018,07,03,05,14,13.10
2018,07,03,05,15,13.10
2018,07,03,05,16,13.10
2018,07,03,05,17,13.00
2018,07,03,05,18,13.00
2018,07,03,05,19,12.90
2018,07,03,05,20,12.90
2018,07,03,05,21,12.90
2018,07,03,05,22,12.90
2018,07,03,05,23,12.80
2018,07,03,05,24,12.80
2018,07,03,05,25,12.80
2018,07,03,05,26,12.70
2018,07,03,05,27,12.70
2018,07,03,05,28,12.70
2018,07,03,05,29,12.60
2018,07,03,05,30,12.60
2018,07,03,05,31,12.60
2018,07,03,05,32,12.60
2018,07,03,05,33,12.60
2018,07,03,05,34,12.70
2018,07,03,05,35,12.70
2018,07,03,05,36,12.70
2018,07,03,05,37,12.70
2018,07,03,05,38,12.70
2018,07,03,05,39,12.70
2018,07,03,05,40,12.70
2018,07,03,05,41,12.70
2018,07,03,05,42,12.70
2018,07,03,05,43,12.70
2018,07,03,05,44,12.80
2018,07,03,05,45,12.80
2018,07,03,05,46,12.80
2018,07,03,05,47,12.80
2018,07,03,05,48,12.80
2018,07,03,05,49,12.80
2018,07,03,05,50,12.80
2018,07,03,05,51,12.70
2018,07,03,05,52,12.70
2018,07,03,05,53,12.80
2018,07,03,05,54,12.80
2018,07,03,05,55,12.80
2018,07,03,05,56,12.90
2018,07,03,05,57,12.90
2018,07,03,05,58,13.00
2018,07,03,05,59,13.00
2018,07,03,06,00,13.00
2018,07,03,06,01,13.00
2018,07,03,06,02,13.00
2018,07,03,06,03,13.00
2018,07,03,06,04,12.90
2018,07,03,06,05,12.90
2018,07,03,06,06,12.90
2018,07,03,06,07,12.80
2018,07,03,06,08,12.80
2018,07,03,06,09,12.80
2018,07,03,06,10,12.80
2018,07,03,06,11,12.90
2018,07,03,06,12,12.90
2018,07,03,06,13,13.00
2018,07,03,06,14,13.10
2018,07,03,06,15,13.20
2018,07,03,06,16,13.20
2018,07,03,06,17,13.20
2018,07,03,06,18,13.20
2018,07,03,06,19,13.20
2018,07,03,06,20,13.20
2018,07,03,06,21,13.20
2018,07,03,06,22,13.20
2018,07,03,06,23,13.10
2018,07,03,06,24,13.10
2018,07,03,06,25,13.10
2018,07,03,06,26,13.10
2018,07,03,06,27,13.00
2018,07,03,06,28,12.90
2018,07,03,06,29,12.90
2018,07,03,06,30,12.90
2018,07,03,06,31,12.90
2018,07,03,06,32,12.80
2018,07,03,06,33,12.80
2018,07,03,06,34,12.80
2018,07,03,06,35,12.80
2018,07,03,06,36,12.80
2018,07,03,06,37,12.80
2018,07,03,06,38,12.80
2018,07,03,06,39,12.80
2018,07,03,06,40,12.80
2018,07,03,06,41,12.80
2018,07,03,06,42,12.80
2018,07,03,06,43,12.80
2018,07,03,06,44,12.80
2018,07,03,06,45,12.80
2018,07,03,06,46,12.80
2018,07,03,06,47,12.80
2018,07,03,06,48,12.80
2018,07,03,06,49,12.80
2018,07,03,06,50,12.90
2018,07,03,06,51,12.90
2018,07,03,06,52,12.90
2018,07,03,06,53,12.90
2018,07,03,06,54,12.90
2018,07,03,06,55,13.00
2018,07,03,06,56,13.00
2018,07,03,06,57,13.10
2018,07,03,06,58,13.10
2018,07,03,06,59,13.10
2018,07,03,07,00,13.10
2018,07,03,07,01,13.20
2018,07,03,07,02,13.20
2018,07,03,07,03,13.20
2018,07,03,07,04,13.20
2018,07,03,07,05,13.30
2018,07,03,07,06,13.30
2018,07,03,07,07,13.30
2018,07,03,07,08,13.30
2018,07,03,07,09,13.30
2018,07,03,07,10,13.40
2018,07,03,07,11,13.40
2018,07,03,07,12,13.40
2018,07,03,07,13,13.40
2018,07,03,07,14,13.40
2018,07,03,07,15,13.40
2018,07,03,07,16,13.50
2018,07,03,07,17,13.50
2018,07,03,07,18,13.50
2018,07,03,07,19,13.50
2018,07,03,07,20,13.60
2018,07,03,07,21,13.60
2018,07,03,07,22,13.60
2018,07,03,07,23,13.60
2018,07,03,07,24,13.60
2018,07,03,07,25,13.70
2018,07,03,07,26,13.70
2018,07,03,07,27,13.70
2018,07,03,07,28,13.70
2018,07,03,07,29,13.70
2018,07,03,07,30,13.70
2018,07,03,07,31,13.70
2018,07,03,07,32,13.80
2018,07,03,07,33,13.80
2018,07,03,07,34,13.80
2018,07,03,07,35,13.80
2018,07,03,07,36,13.80
2018,07,03,07,37,13.80
2018,07,03,07,38,13.80
2018,07,03,07,39,13.90
2018,07,03,07,40,13.90
2018,07,03,07,41,13.90
2018,07,03,07,42,13.90
2018,07,03,07,43,13.90
2018,07,03,07,44,13.90
2018,07,03,07,45,13.90
2018,07,03,07,46,14.00
2018,07,03,07,47,14.00
2018,07,03,07,48,14.00
2018,07,03,07,49,14.00
2018,07,03,07,50,14.00
2018,07,03,07,51,14.10
2018,07,03,07,52,14.10
2018,07,03,07,53,14.10
2018,07,03,07,54,14.10
2018,07,03,07,55,14.10
2018,07,03,07,56,14.20
2018,07,03,07,57,14.20
2018,07,03,07,58,14.20
2018,07,03,07,59,14.20
2018,07,03,08,00,14.20
2018,07,03,08,01,14.20
2018,07,03,08,02,14.20
2018,07,03,08,03,14.20
2018,07,03,08,04,14.20
2018,07,03,08,05,14.20
2018,07,03,08,06,14.30
2018,07,03,08,07,14.30
2018,07,03,08,08,14.30
2018,07,03,08,09,14.30
2018,07,03,08,10,14.30
2018,07,03,08,11,14.30
2018,07,03,08,12,14.30
2018,07,03,08,13,14.30
2018,07,03,08,14,14.30
2018,07,03,08,15,14.30
2018,07,03,08,16,14.30
2018,07,03,08,17,14.30
2018,07,03,08,18,14.40
2018,07,03,08,19,14.40
2018,07,03,08,20,14.40
2018,07,03,08,21,14.40
2018,07,03,08,22,14.40
2018,07,03,08,23,14.40
2018,07,03,08,24,14.40
2018,07,03,08,25,14.40
2018,07,03,08,26,14.40
2018,07,03,08,27,14.40
2018,07,03,08,28,14.40
2018,07,03,08,29,14.40
2018,07,03,08,30,14.40
2018,07,03,08,31,14.50
2018,07,03,08,32,14.50
2018,07,03,08,33,14.50
2018,07,03,08,34,14.50
2018,07,03,08,35,14.50
2018,07,03,08,36,14.60
2018,07,03,08,37,14.60
2018,07,03,08,38,14.60
2018,07,03,08,39,14.60
2018,07,03,08,40,14.60
2018,07,03,08,41,14.60
2018,07,03,08,42,14.70
2018,07,03,08,43,14.70
2018,07,03,08,44,14.70
2018,07,03,08,45,14.70
2018,07,03,08,46,14.70
2018,07,03,08,47,14.70
2018,07,03,08,48,14.70
2018,07,03,08,49,14.70
2018,07,03,08,50,14.80
2018,07,03,08,51,14.80
2018,07,03,08,52,14.80
2018,07,03,08,53,14.80
2018,07,03,08,54,14.80
2018,07,03,08,55,14.80
2018,07,03,08,56,14.80
2018,07,03,08,57,14.80
2018,07,03,08,58,14.80
2018,07,03,08,59,14.90
2018,07,03,09,00,14.90
2018,07,03,09,01,14.90
2018,07,03,09,02,15.00
2018,07,03,09,03,15.00
2018,07,03,09,04,15.00
2018,07,03,09,05,15.10
2018,07,03,09,06,15.10
2018,07,03,09,07,15.10
2018,07,03,09,08,15.20
2018,07,03,09,09,15.20
2018,07,03,09,10,15.30
2018,07,03,09,11,15.30
2018,07,03,09,12,15.40
2018,07,03,09,13,15.50
2018,07,03,09,14,15.60
2018,07,03,09,15,15.60
2018,07,03,09,16,15.80
2018,07,03,09,17,15.80
2018,07,03,09,18,16.00
2018,07,03,09,19,16.00
2018,07,03,09,20,16.10
2018,07,03,09,21,16.20
2018,07,03,09,22,16.30
2018,07,03,09,23,16.40
2018,07,03,09,24,16.50
2018,07,03,09,25,16.60
2018,07,03,09,26,16.70
2018,07,03,09,27,16.80
2018,07,03,09,28,16.90
2018,07,03,09,29,17.00
2018,07,03,09,30,17.10
2018,07,03,09,31,17.20
2018,07,03,09,32,17.30
2018,07,03,09,33,17.40
2018,07,03,09,34,17.40
2018,07,03,09,35,17.50
2018,07,03,09,36,17.60
2018,07,03,09,37,17.60
2018,07,03,09,38,17.70
2018,07,03,09,39,17.70
2018,07,03,09,40,17.80
2018,07,03,09,41,17.80
2018,07,03,09,42,17.90
2018,07,03,09,43,17.90
2018,07,03,09,44,18.00
2018,07,03,09,45,18.00
2018,07,03,09,46,18.00
2018,07,03,09,47,18.10
2018,07,03,09,48,18.10
2018,07,03,09,49,18.20
2018,07,03,09,50,18.20
2018,07,03,09,51,18.30
2018,07,03,09,52,18.40
2018,07,03,09,53,18.40
2018,07,03,09,54,18.50
2018,07,03,09,55,18.60
2018,07,03,09,56,18.70
2018,07,03,09,57,18.80
2018,07,03,09,58,18.80
2018,07,03,09,59,18.80
2018,07,03,10,00,18.90
2018,07,03,10,01,18.90
2018,07,03,10,02,19.00
2018,07,03,10,03,19.10
2018,07,03,10,04,19.10
2018,07,03,10,05,19.10
2018,07,03,10,06,19.20
2018,07,03,10,07,19.20
2018,07,03,10,08,19.20
2018,07,03,10,09,19.20
2018,07,03,10,10,19.20
2018,07,03,10,11,19.30
2018,07,03,10,12,19.30
2018,07,03,10,13,19.30
2018,07,03,10,14,19.30
2018,07,03,10,15,19.30
2018,07,03,10,16,19.30
2018,07,03,10,17,19.30
2018,07,03,10,18,19.30
2018,07,03,10,19,19.40
2018,07,03,10,20,19.40
2018,07,03,10,21,19.40
2018,07,03,10,22,19.50
2018,07,03,10,23,19.50
2018,07,03,10,24,19.60
2018,07,03,10,25,19.60
2018,07,03,10,26,19.70
2018,07,03,10,27,19.70
2018,07,03,10,28,19.70
2018,07,03,10,29,19.80
2018,07,03,10,30,19.80
2018,07,03,10,31,19.90
2018,07,03,10,32,20.00
2018,07,03,10,33,20.00
2018,07,03,10,34,20.00
2018,07,03,10,35,20.10
2018,07,03,10,36,20.10
2018,07,03,10,37,20.10
2018,07,03,10,38,20.10
2018,07,03,10,39,20.10
2018,07,03,10,40,20.10
2018,07,03,10,41,20.00
2018,07,03,10,42,20.00
2018,07,03,10,43,19.90
2018,07,03,10,44,19.80
2018,07,03,10,45,19.80
2018,07,03,10,46,19.70
2018,07,03,10,47,19.70
2018,07,03,10,48,19.70
2018,07,03,10,49,19.60
2018,07,03,10,50,19.70
2018,07,03,10,51,19.70
2018,07,03,10,52,19.70
2018,07,03,10,53,19.70
2018,07,03,10,54,19.70
2018,07,03,10,55,19.70
2018,07,03,10,56,19.70
2018,07,03,10,57,19.70
2018,07,03,10,58,19.70
2018,07,03,10,59,19.60
2018,07,03,11,00,19.60
2018,07,03,11,01,19.50
2018,07,03,11,02,19.40
2018,07,03,11,03,19.30
2018,07,03,11,04,19.20
2018,07,03,11,05,19.10
2018,07,03,11,06,19.10
2018,07,03,11,07,19.00
2018,07,03,11,08,19.00
2018,07,03,11,09,19.00
2018,07,03,11,10,19.00
2018,07,03,11,11,18.90
2018,07,03,11,12,18.90
2018,07,03,11,13,18.90
2018,07,03,11,14,18.90
2018,07,03,11,15,18.90
2018,07,03,11,16,18.90
2018,07,03,11,17,19.00
2018,07,03,11,18,19.00
2018,07,03,11,19,19.10
2018,07,03,11,20,19.20
2018,07,03,11,21,19.30
2018,07,03,11,22,19.40
2018,07,03,11,23,19.50
2018,07,03,11,24,19.60
2018,07,03,11,25,19.60
2018,07,03,11,26,19.70
2018,07,03,11,27,19.70
2018,07,03,11,28,19.80
2018,07,03,11,29,19.90
2018,07,03,11,30,19.90
2018,07,03,11,31,20.00
2018,07,03,11,32,20.10
2018,07,03,11,33,20.10
2018,07,03,11,34,20.20
2018,07,03,11,35,20.20
2018,07,03,11,36,20.30
2018,07,03,11,37,20.30
2018,07,03,11,38,20.30
2018,07,03,11,39,20.30
2018,07,03,11,40,20.30
2018,07,03,11,41,20.30
2018,07,03,11,42,20.20
2018,07,03,11,43,20.20
2018,07,03,11,44,20.20
2018,07,03,11,45,20.10
2018,07,03,11,46,20.00
2018,07,03,11,47,20.00
2018,07,03,11,48,19.90
2018,07,03,11,49,19.80
2018,07,03,11,50,19.80
2018,07,03,11,51,19.70
2018,07,03,11,52,19.70
2018,07,03,11,53,19.70
2018,07,03,11,54,19.70
2018,07,03,11,55,19.70
2018,07,03,11,56,19.70
2018,07,03,11,57,19.70
2018,07,03,11,58,19.60
2018,07,03,11,59,19.60
2018,07,03,12,00,19.60
2018,07,03,12,01,19.70
2018,07,03,12,02,19.70
2018,07,03,12,03,19.80
2018,07,03,12,04,19.80
2018,07,03,12,05,19.90
2018,07,03,12,06,20.00
2018,07,03,12,07,20.00
2018,07,03,12,08,20.10
2018,07,03,12,09,20.10
2018,07,03,12,10,20.20
2018,07,03,12,11,20.20
2018,07,03,12,12,20.20
2018,07,03,12,13,20.20
2018,07,03,12,14,20.20
2018,07,03,12,15,20.20
2018,07,03,12,16,20.30
2018,07,03,12,17,20.40
2018,07,03,12,18,20.40
2018,07,03,12,19,20.50
2018,07,03,12,20,20.50
2018,07,03,12,21,20.60
2018,07,03,12,22,20.70
2018,07,03,12,23,20.70
2018,07,03,12,24,20.70
2018,07,03,12,25,20.80
2018,07,03,12,26,20.80
2018,07,03,12,27,20.90
2018,07,03,12,28,20.90
2018,07,03,12,29,20.90
2018,07,03,12,30,20.90
2018,07,03,12,31,20.90
2018,07,03,12,32,20.80
2018,07,03,12,33,20.80
2018,07,03,12,34,20.80
2018,07,03,12,35,20.70
2018,07,03,12,36,20.70
2018,07,03,12,37,20.60
2018,07,03,12,38,20.60
2018,07,03,12,39,20.60
2018,07,03,12,40,20.50
2018,07,03,12,41,20.50
2018,07,03,12,42,20.40
2018,07,03,12,43,20.40
2018,07,03,12,44,20.40
2018,07,03,12,45,20.30
2018,07,03,12,46,20.30
2018,07,03,12,47,20.20
2018,07,03,12,48,20.20
2018,07,03,12,49,20.10
2018,07,03,12,50,20.10
2018,07,03,12,51,20.10
2018,07,03,12,52,20.00
2018,07,03,12,53,20.00
2018,07,03,12,54,20.00
2018,07,03,12,55,20.00
2018,07,03,12,56,19.90
2018,07,03,12,57,19.90
2018,07,03,12,58,19.90
2018,07,03,12,59,19.90
2018,07,03,13,00,19.90
2018,07,03,13,01,19.80
2018,07,03,13,02,19.80
2018,07,03,13,03,19.80
2018,07,03,13,04,19.80
2018,07,03,13,05,19.80
2018,07,03,13,06,19.70
2018,07,03,13,07,19.70
2018,07,03,13,08,19.70
2018,07,03,13,09,19.70
2018,07,03,13,10,19.60
2018,07,03,13,11,19.60
2018,07,03,13,12,19.50
2018,07,03,13,13,19.60
2018,07,03,13,14,19.60
2018,07,03,13,15,19.60
2018,07,03,13,16,19.60
2018,07,03,13,17,19.60
2018,07,03,13,18,19.60
2018,07,03,13,19,19.60
2018,07,03,13,20,19.60
2018,07,03,13,21,19.60
2018,07,03,13,22,19.60
2018,07,03,13,23,19.60
2018,07,03,13,24,19.70
2018,07,03,13,25,19.70
2018,07,03,13,26,19.60
2018,07,03,13,27,19.60
2018,07,03,13,28,19.60
2018,07,03,13,29,19.70
2018,07,03,13,30,19.70
2018,07,03,13,31,19.70
2018,07,03,13,32,19.70
2018,07,03,13,33,19.80
2018,07,03,13,34,19.80
2018,07,03,13,35,19.80
2018,07,03,13,36,19.80
2018,07,03,13,37,19.90
2018,07,03,13,38,19.90
2018,07,03,13,39,19.90
2018,07,03,13,40,19.90
2018,07,03,13,41,19.90
2018,07,03,13,42,19.90
2018,07,03,13,43,19.90
2018,07,03,13,44,20.00
2018,07,03,13,45,20.00
2018,07,03,13,46,19.90
2018,07,03,13,47,19.90
2018,07,03,13,48,19.90
2018,07,03,13,49,19.80
2018,07,03,13,50,19.80
2018,07,03,13,51,19.80
2018,07,03,13,52,19.80
2018,07,03,13,53,19.80
2018,07,03,13,54,19.80
2018,07,03,13,55,19.80
2018,07,03,13,56,19.80
2018,07,03,13,57,19.80
2018,07,03,13,58,19.80
2018,07,03,13,59,19.70
2018,07,03,14,00,19.70
2018,07,03,14,01,19.60
2018,07,03,14,02,19.50
2018,07,03,14,03,19.40
2018,07,03,14,04,19.30
2018,07,03,14,05,19.30
2018,07,03,14,06,19.30
2018,07,03,14,07,19.30
2018,07,03,14,08,19.30
2018,07,03,14,09,19.20
2018,07,03,14,10,19.20
2018,07,03,14,11,19.20
2018,07,03,14,12,19.10
2018,07,03,14,13,19.00
2018,07,03,14,14,19.00
2018,07,03,14,15,19.00
2018,07,03,14,16,18.90
2018,07,03,14,17,18.80
2018,07,03,14,18,18.80
2018,07,03,14,19,18.70
2018,07,03,14,20,18.60
2018,07,03,14,21,18.50
2018,07,03,14,22,18.40
2018,07,03,14,23,18.30
2018,07,03,14,24,18.20
2018,07,03,14,25,18.10
2018,07,03,14,26,18.10
2018,07,03,14,27,18.10
2018,07,03,14,28,18.10
2018,07,03,14,29,18.10
2018,07,03,14,30,18.10
2018,07,03,14,31,18.10
2018,07,03,14,32,18.00
2018,07,03,14,33,18.00
2018,07,03,14,34,17.90
2018,07,03,14,35,17.90
2018,07,03,14,36,17.90
2018,07,03,14,37,17.90
2018,07,03,14,38,17.90
2018,07,03,14,39,17.90
2018,07,03,14,40,17.90
2018,07,03,14,41,18.00
2018,07,03,14,42,18.00
2018,07,03,14,43,18.00
2018,07,03,14,44,18.00
2018,07,03,14,45,18.00
2018,07,03,14,46,18.10
2018,07,03,14,47,18.10
2018,07,03,14,48,18.10
2018,07,03,14,49,18.10
2018,07,03,14,50,18.10
2018,07,03,14,51,18.10
2018,07,03,14,52,18.10
2018,07,03,14,53,18.10
2018,07,03,14,54,18.10
2018,07,03,14,55,18.10
2018,07,03,14,56,18.10
2018,07,03,14,57,18.10
2018,07,03,14,58,18.10
2018,07,03,14,59,18.10
2018,07,03,15,00,18.20
2018,07,03,15,01,18.20
2018,07,03,15,02,18.20
2018,07,03,15,03,18.20
2018,07,03,15,04,18.10
2018,07,03,15,05,18.10
2018,07,03,15,06,18.10
2018,07,03,15,07,18.10
2018,07,03,15,08,18.10
2018,07,03,15,09,18.10
2018,07,03,15,10,18.10
2018,07,03,15,11,18.10
2018,07,03,15,12,18.10
2018,07,03,15,13,18.10
2018,07,03,15,14,18.10
2018,07,03,15,15,18.20
2018,07,03,15,16,18.20
2018,07,03,15,17,18.20
2018,07,03,15,18,18.20
2018,07,03,15,19,18.20
2018,07,03,15,20,18.20
2018,07,03,15,21,18.20
2018,07,03,15,22,18.20
2018,07,03,15,23,18.20
2018,07,03,15,24,18.30
2018,07,03,15,25,18.30
2018,07,03,15,26,18.30
2018,07,03,15,27,18.20
2018,07,03,15,28,18.20
2018,07,03,15,29,18.20
2018,07,03,15,30,18.20
2018,07,03,15,31,18.20
2018,07,03,15,32,18.20
2018,07,03,15,33,18.20
2018,07,03,15,34,18.20
2018,07,03,15,35,18.20
2018,07,03,15,36,18.30
2018,07,03,15,37,18.30
2018,07,03,15,38,18.30
2018,07,03,15,39,18.30
2018,07,03,15,40,18.30
2018,07,03,15,41,18.30
2018,07,03,15,42,18.30
2018,07,03,15,43,18.30
2018,07,03,15,44,18.30
2018,07,03,15,45,18.30
2018,07,03,15,46,18.30
2018,07,03,15,47,18.30
2018,07,03,15,48,18.20
2018,07,03,15,49,18.30
2018,07,03,15,50,18.30
2018,07,03,15,51,18.30
2018,07,03,15,52,18.30
2018,07,03,15,53,18.20
2018,07,03,15,54,18.20
2018,07,03,15,55,18.30
2018,07,03,15,56,18.30
2018,07,03,15,57,18.30
2018,07,03,15,58,18.30
2018,07,03,15,59,18.30
2018,07,03,16,00,18.30
2018,07,03,16,01,18.20
2018,07,03,16,02,18.20
2018,07,03,16,03,18.20
2018,07,03,16,04,18.20
2018,07,03,16,05,18.30
2018,07,03,16,06,18.30
2018,07,03,16,07,18.30
2018,07,03,16,08,18.30
2018,07,03,16,09,18.30
2018,07,03,16,10,18.30
2018,07,03,16,11,18.30
2018,07,03,16,12,18.30
2018,07,03,16,13,18.30
2018,07,03,16,14,18.30
2018,07,03,16,15,18.30
2018,07,03,16,16,18.30
2018,07,03,16,17,18.30
2018,07,03,16,18,18.30
2018,07,03,16,19,18.30
2018,07,03,16,20,18.30
2018,07,03,16,21,18.30
2018,07,03,16,22,18.40
2018,07,03,16,23,18.40
2018,07,03,16,24,18.40
2018,07,03,16,25,18.40
2018,07,03,16,26,18.40
2018,07,03,16,27,18.40
2018,07,03,16,28,18.30
2018,07,03,16,29,18.30
2018,07,03,16,30,18.30
2018,07,03,16,31,18.30
2018,07,03,16,32,18.30
2018,07,03,16,33,18.30
2018,07,03,16,34,18.30
2018,07,03,16,35,18.30
2018,07,03,16,36,18.40
2018,07,03,16,37,18.40
2018,07,03,16,38,18.40
2018,07,03,16,39,18.40
2018,07,03,16,40,18.40
2018,07,03,16,41,18.40
2018,07,03,16,42,18.40
2018,07,03,16,43,18.50
2018,07,03,16,44,18.50
2018,07,03,16,45,18.50
2018,07,03,16,46,18.50
2018,07,03,16,47,18.50
2018,07,03,16,48,18.50
2018,07,03,16,49,18.50
2018,07,03,16,50,18.50
2018,07,03,16,51,18.50
2018,07,03,16,52,18.50
2018,07,03,16,53,18.60
2018,07,03,16,54,18.60
2018,07,03,16,55,18.60
2018,07,03,16,56,18.60
2018,07,03,16,57,18.60
2018,07,03,16,58,18.60
2018,07,03,16,59,18.60
2018,07,03,17,00,18.70
2018,07,03,17,01,18.70
2018,07,03,17,02,18.70
2018,07,03,17,03,18.70
2018,07,03,17,04,18.70
2018,07,03,17,05,18.70
2018,07,03,17,06,18.70
2018,07,03,17,07,18.70
2018,07,03,17,08,18.70
2018,07,03,17,09,18.80
2018,07,03,17,10,18.80
2018,07,03,17,11,18.80
2018,07,03,17,12,18.80
2018,07,03,17,13,18.90
2018,07,03,17,14,18.90
2018,07,03,17,15,18.90
2018,07,03,17,16,19.00
2018,07,03,17,17,19.00
2018,07,03,17,18,19.10
2018,07,03,17,19,19.20